ARSAT 2

Last updated on Sun Apr 12 2026 00:02:54 GMT+0000 (Coordinated Universal Time)

1 40941U 15054B 26101.50465733 -.00000223 00000+0 00000+0 0 9992 2 40941 0.0193 283.5258 0002073 93.6795 283.1896 1.00272930 38638
UTC large
Height (km)
Speed (km/s)
/
Latitude / Longitude
Inclination (degrees)
Orbital Period (minutes)
Azimuth
Elevation
Range (km)
Doppler Factor

Next 0 passes for location: London (51.5072 / 0.1276)

Sorry there are no passes over London.
ARSAT 2